This is the latest recevied weather packets stored in our database for station/object ALTO-WX. If no packets are shown the sender has not sent any weather packets the latest 10 day(s).
| Time | Temp. | Humidity | Pressure | Rain* | Wind** | Luminosity | Snow |
|---|---|---|---|---|---|---|---|
| 1778390134 | 7.22° C | 53% | 981.5 hPa | 0 mm | - | - | - |
| 1778389258 | 7.78° C | 53% | 981.5 hPa | 0 mm | - | - | - |
| 1778388334 | 8.33° C | 53% | 979.8 hPa | 0 mm | - | - | - |
| 1778387451 | 8.33° C | 53% | 979.8 hPa | 0 mm | - | - | - |
| 1778386533 | 8.89° C | 53% | 979.8 hPa | 0 mm | - | - | - |
| 1778385661 | 9.44° C | 53% | 979.8 hPa | 0 mm | - | - | - |
| 1778384733 | 9.44° C | 49% | 979.1 hPa | 0 mm | - | - | - |
| 1778383851 | 10° C | 48% | 979.2 hPa | 0 mm | - | - | - |
| 1778382933 | 10° C | 48% | 979.2 hPa | 0 mm | - | - | - |
| 1778382061 | 10.56° C | 48% | 979.2 hPa | 0 mm | - | - | - |
| 1778381132 | 10.56° C | 45% | 978 hPa | 0 mm | - | - | - |
| 1778380249 | 10.56° C | 48% | 978 hPa | 0 mm | - | - | - |
| 1778379333 | 11.11° C | 48% | 978 hPa | 0 mm | - | - | - |
| 1778378457 | 11.67° C | 48% | 978 hPa | 0 mm | - | - | - |
| 1778377533 | 11.67° C | 46% | 977.1 hPa | 0 mm | - | - | - |
| 1778376650 | 12.22° C | 46% | 977.1 hPa | 0 mm | - | - | - |
| 1778375732 | 12.22° C | 46% | 977 hPa | 0 mm | - | - | - |
| 1778374858 | 12.78° C | 46% | 977 hPa | 0 mm | - | - | - |
| 1778373939 | 12.78° C | 37% | 976.7 hPa | 0 mm | - | - | - |
| 1778373050 | 13.33° C | 41% | 977.2 hPa | 0 mm | - | - | - |
| 1778372137 | 13.89° C | 41% | 977.2 hPa | 0 mm | - | - | - |
| 1778371266 | 14.44° C | 41% | 977.2 hPa | 0 mm | - | - | - |
| 1778370339 | 15° C | 37% | 975.5 hPa | 0 mm | - | - | - |
| 1778369448 | 15.56° C | 38% | 976.4 hPa | 0 mm | - | - | - |
| 1778368535 | 15.56° C | 38% | 976.3 hPa | 0 mm | - | - | - |
* Rain latest hour (hover to see other rain measurements)
** Current wind speed in m/s (hover to see current wind gust speed)